Location: Fond Mahaut
(18.0707°N, 63.0465°W)
Time: 14:06:58
(UTC+00:00)

Cosmos 407 Rocket - Pass Details

Date: 08 December 2019
Orbit: 743 x 787 km, 74.0° (Epoch: 22 January)

Event Time Altitude Azimuth Distance (km) Brightness Sun altitude
Rises 22:13:01 0° 192° (SSW) 3,171 7.2 -8.9°
Reaches altitude 10° 22:15:22 10° 192° (SSW) 2,252 6.4 -9.4°
Maximum altitude 22:20:28 89° 107° (ESE) 753 3.5 -10.5°
Drops below altitude 10° 22:25:38 10° 14° (NNE) 2,279 5.6 -11.7°
Sets 22:28:01 0° 14° (NNE) 3,212 6.4 -12.2°
